AirNav   ATP
 
 460 users online  

6K7 Grundy Center Municipal Airport
Grundy Center, Iowa, USA

GOING TO GRUNDY CENTER?


FAA INFORMATION EFFECTIVE 11 OCTOBER 2018

Location

FAA Identifier: 6K7
Lat/Long: 42-21-02.9390N / 092-50-36.7190W
42-21.048983N / 092-50.611983W
42.3508164 / -92.8435331
(estimated)
Elevation: 1075 ft. / 327.7 m (surveyed)
Variation: 03E (1985)
From city: 3 miles W of GRUNDY CENTER, IA
Time zone: UTC -5 (UTC -6 during Standard Time)
Zip code: 50638

Airport Operations

Airport use: Open to the public
Activation date: 08/1963
Control tower: no
ARTCC: CHICAGO CENTER
FSS: FORT DODGE FLIGHT SERVICE STATION
NOTAMs facility: FOD (NOTAM-D service available)
Attendance: UNATNDD
Wind indicator: lighted
Segmented circle: no

Airport Communications

CTAF: 122.9
WX ASOS at MIW (15 nm S): 128.325 (641-752-2339)

Nearby radio navigation aids

VOR radial/distance  VOR name  Freq  Var
JWJr010/14.7ELMWOOD VOR/DME109.4001E
ALOr238/23.2WATERLOO VOR/DME112.2000E
TNUr016/36.0NEWTON VOR/DME112.5003E

Airport Services

Parking: tiedowns
Airframe service: NONE
Powerplant service: NONE
Bottled oxygen: NONE
Bulk oxygen: NONE

Runway Information

Runway 17/35

Dimensions: 2250 x 60 ft. / 686 x 18 m
Surface: turf, in fair condition
Runway edge markings: & 35 MARKED AT CORNERS & EDGES WITH YELLOW CONES.
RUNWAY 17  RUNWAY 35
Traffic pattern: leftleft
Displaced threshold: 640 ft.
DSPLCD THLD MARKED WITH THREE YELLOW CONES EACH SIDE OF RY.
no
Obstructions: 10 ft. road, 200 ft. from runway, 20:1 slope to clear
APCH RATIO 50:1 AT DSPLCD THLD.
4 ft. pole, 120 ft. from runway, 30:1 slope to clear

Airport Ownership and Management from official FAA records

Ownership: Publicly-owned
Owner: CITY OF GRUNDY CENTER
703 F AVENUE, SUITE 2
GRUNDY CENTER, IA 50638
Phone 319-825-6118
Manager: DAN BANGASSER
703 F AVENUE, SUITE 2
GRUNDY CENTER, IA 50638
Phone 319-825-6118

Airport Operational Statistics

Aircraft based on the field: 1
Ultralights: 1
    
Aircraft operations: avg 21/month *
60% transient general aviation
40% local general aviation
* for 12-month period ending 28 August 2017

Additional Remarks

E98 T-HANGARS ADJACENT TO RWY.
ARPT CLSD WINTER MONTHS.
RADIO CONTROL ACFT ON AND AROUND ARPT.
RY 17 +29 FT LGTD POLE 495 T FM DSPLCD THLD 155 FT R.

Instrument Procedures

There are no published instrument procedures at 6K7.

Some nearby airports with instrument procedures:

KMIW - Marshalltown Municipal Airport (15 nm S)
KIFA - Iowa Falls Municipal Airport (20 nm W)
KALO - Waterloo Regional Airport (23 nm NE)
C25 - Waverly Municipal Airport (28 nm NE)
KHPT - Hampton Municipal Airport (28 nm NW)
 
Loc | Ops | Rwys | IFR | FBO | Links
Com | Nav | Svcs | Stats | Notes


 
Area around 6K7 (Grundy Center Municipal Airport)
 
Road maps at: MapQuest Bing Google
 
Aerial photo
WARNING: Photo may not be current or correct
Aerial photo of 6K7 (Grundy Center Municipal Airport)
Do you have a better or more recent aerial photo of Grundy Center Municipal Airport that you would like to share? If so, please send us your photo.

 
Sectional chart

 
Airport distance calculator
Flying to Grundy Center Municipal Airport? Find the distance to fly.

From to 6K7

Sunrise and sunset
Times for 17-Oct-2018
 Local
(UTC-5)
 Zulu
(UTC)
Morning civil twilight06:5911:59
Sunrise07:2812:28
Sunset18:2623:26
Evening civil twilight18:5423:54

Current date and time
Zulu (UTC)  17-Oct-2018 10:12:50
Local (UTC-5)  17-Oct-2018 05:12:50
 
METAR
KMIW 
14nm S 
170953Z AUTO 33009KT 10SM CLR 03/01 A3029 RMK AO2 SLP260 T00280006
KIFA 
20nm W 
170955Z AUTO 30005KT 10SM CLR 02/00 A3030 RMK AO2 T00220000
KALO 
23nm NE 
170954Z AUTO 29008KT 10SM CLR 03/M01 A3026 RMK AO2 SLP250 T00331006
KHPT 
28nm NW 
170955Z AUTO 29007KT 10SM CLR 01/00 A3028 RMK AO2
TAF
KALO 
23nm NE 
170520Z 1706/1806 31007KT P6SM SKC FM171300 32007KT P6SM FEW250
NOTAMs
Click for the latest NOTAMs
NOTAMs are issued by the DoD/FAA and will open in a separate window not controlled by AirNav.

 

 
 

Would you like to see your business listed on this page?

 If your business provides an interesting product or service to pilots, flight crews, aircraft, or users of the Grundy Center Municipal Airport, you should consider listing it here.  To start the listing process, click on the button below
 
Add a business
 

Other Pages about Grundy Center Municipal Airport

Page from the Iowa Airport Directory
 
Update a link
 
Copyright © AirNav, LLC. All rights reserved. Privacy Policy  Contact